Погода в Фалево

Россия / Тверская область     57°16′19″N   37°50′44″E
темп.,
°C
ветер,
м/с
пор.,
м/с
влажн.,
%
обл.,
%
осадки,
мм/ч
давл.,
гПа
погр.,
м
25 июля, вс
вс2500:00+10юз227516 0.0 101816
03:00+10юз227497 0.0 101822
06:00+13зюз2263100 0.0 101952
09:00+16з2255100 0.0 1020330
12:00+22з123612 0.0 10202068
15:00+22сз343292 0.0 10192375
18:00+22зсз243395 0.0 10192357
21:00+17ссз1153100 0.0 102114
26 июля, пн
пн2600:00+16зюз125791 0.0 102213
03:00+16зюз1160100 0.0 102211
06:00+16зюз2360100 0.0 102297
09:00+21з2349100 0.0 1022529
12:00+24з343810 0.0 10221473
15:00+24ссз343796 0.0 10212030
18:00+25сз443698 0.0 10211669
21:00+19з335180 0.0 102128
27 июля, вт
вт2700:00+16з226679 0.0 102217
03:00+18з236189 0.0 102263
06:00+17з24675 0.0 1022103
09:00+23зсз34475 0.0 1022577
12:00+27зсз45360 0.0 10202426
15:00+27зсз443475 0.0 10192263
18:00+28з453336 0.0 10181867
21:00+21в226075 0.2 101819
28 июля, ср
ср2800:00+18ю226636 0.0 101820
03:00+17с11665 0.0 101811
06:00+17ююз23710 0.0 101761
09:00+24ююз33490 0.0 1015497
12:00+28юз453536 0.0 10132513
15:00+27юз6744100 0.0 10121638
18:00+21юз71167100 0.2 1011735
21:00+16ююв22865 0.2 101021
29 июля, чт
чт2900:00+14юв359585 0.0 1008103
03:00+15вюв249481 0.0 1006117
06:00+16св2292100 0.0 1005145
09:00+18с1180100 0.0 1005535
12:00+21ссз226394 0.1 10041102
15:00+26ссв244725 0.1 10031568
18:00+27зсз244120 0.0 10021997
21:00+21зсз236929 0.2 100250